Current weather by "City, St" or "zip code"  
 

Current Conditions: Warrenton-Fauquier Airport, VA

Mostly Cloudy


53.0 F

Last Updated on Oct 31 2020, 1:55 pm EDT
Humidity: 42%
Wind Speed: S 3.5 mph
Barometer 30.47 in
Dewpoint: 30.0 F
Visibility: 10.00 mi
Precip: --
Heat Index: NA
Wind Chill: NA
Current conditions at:

Warrenton-Fauquier Airport, VA (KHWY)

Lat: 38.58765 Lon: 77.71501

Local Radar Image active severe weather and emergency alerts image image weather storm and storm spotter reports image weather observation monitoring service image
Local
Radar
Active
Alerts
Storm Reports Obs
Monitoring

Sign-up For Email & Text Message Weather Alert Notification Services



Advertise Here

Observation History for Warrenton-Fauquier Airport, VA


Time Wind
(mph)
Vis
(mi)
Weather Precip (in) Temperature (F) Relative
Humidity
Wind
Chill
(F)
Heat
Index
(F)
Pressure
Air Dwpt altimeter
(in)
sea level
(mb)
Rmks
1:55 pm EDT S 3.5 10.00 Mostly Cloudy -- 53.0 30.0 42% NA NA 30.47 M
1:35 pm EDT S 5.8 10.00 Mostly Cloudy -- 53.0 29.1 41% 51 NA 30.49 M
12:35 pm EDT S 4.6 10.00 Partly Cloudy -- 53.0 30.7 43% 52 NA 30.51 M
11:55 am EDT NE 5.8 10.00 Fair -- 50.0 27.9 42% 48 NA 30.53 M
11:35 am EDT N 0.0 10.00 Fair -- 50.0 27.7 42% NA NA 30.53 M
10:35 am EDT NE 3.5 10.00 Fair -- 48.0 31.5 53% NA NA 30.54 M
9:55 am EDT NE 3.5 10.00 Fair -- 46.0 36.1 69% NA NA 30.53 M
8:55 am EDT N 0.0 10.00 Fair -- 40.0 35.1 84% NA NA 30.51 M
7:55 am EDT N 0.0 10.00 Fair -- 33.0 31.3 93% NA NA 30.47 M
6:55 am EDT N 0.0 10.00 Fair -- 33.0 30.7 93% NA NA 30.46 M
5:55 am EDT N 0.0 10.00 Fair -- 33.0 31.5 93% NA NA 30.44 M
4:55 am EDT N 0.0 10.00 Fair -- 35.0 32.2 91% NA NA 30.42 M
3:55 am EDT NW 3.5 10.00 Fair -- 39.0 34.0 83% NA NA 30.39 M
2:55 am EDT N 0.0 10.00 Fair -- 37.0 33.4 86% NA NA 30.38 M
1:55 am EDT N 3.5 10.00 Fair -- 40.0 34.3 80% NA NA 30.36 M
12:55 am EDT N 0.0 10.00 Fair -- 39.0 35.1 85% NA NA 30.35 M
11:55 pm EDT NW 6.9 10.00 Fair -- 42.0 35.2 76% 38 NA 30.33 M
10:55 pm EDT NW 4.6 10.00 Fair -- 44.0 35.8 74% 41 NA 30.31 M
9:55 pm EDT NW 4.6 10.00 Fair -- 47.0 35.6 65% 45 NA 30.27 M
9:35 pm EDT NW 11.5 G 16.1 10.00 Fair -- 48.0 36.1 64% 43 NA 30.26 M
8:55 pm EDT NW 12.7 G 18.4 10.00 Fair -- 49.0 37.0 63% 44 NA 30.24 M
8:35 pm EDT NW 11.5 G 17.3 10.00 Fair -- 49.0 37.6 65% 44 NA 30.23 M
7:55 pm EDT NW 12.7 G 17.3 10.00 Fair -- 50.0 38.8 66% 45 NA 30.20 M
6:55 pm EDT N 5.8 10.00 Overcast -- 51.0 43.2 76% 49 NA 30.16 M

Regional Weather Observation


Warrenton-Fauquier Airport, VA (KHWY)

Mostly Cloudy
53.0 F

Washington/Dulles International Airport, DC, VA (KIAD)

Mostly Cloudy
49.0 F

Manassas, Manassas Regional Airport/Harry P. Davis Field, VA (KHEF)

Fair
39.0 F

Stafford, Stafford Regional Airport, VA (KRMN)

Overcast
52.0 F

Luray Caverns, VA (KLUA)

Overcast
50.0 F

Orange, Orange County Airport, VA (KOMH)

Mostly Cloudy
50.0 F